Content
SEND FEEDBACK

Daily
Averages
Monthly
Summary
United States of America

SOUTH LAKE TAHOE, CALIFORNIA


Home > North America > United States > California
Elevation: 6263 feet     Latitude: 38 53N     Longitude: 119 59W

WEATHER
 
SELECT A DAY
Number of Records: 174,582;   Date Range: 1/1/95 - 9/3/14
 
SHARE

PRINT THIS DATA

[ ← Previous Day ]
WEATHER ALMANAC - MAY 10, 2013
[ Next Day → ]
[ °C ]   °F
Weather ElementAverageHighLow
Temperature58.4 °F72 °F (2:53 pm)39 °F (6:53 am)
Dewpoint37.9 °F42.1 °F (10:53 am)32 °F (5:53 pm)
Humidity51.6 %86 % (6:53 am)24 % (4:53 pm)
Barometer30.22 in30.26 in (6:53 am)30.19 in (3:53 pm)
Wind Speed2.6 mph6.9 mph (1:53 pm)
Weather ElementAverage
Visibility10 mi
Wind DirectionNE (43.7 °)

Weather ElementTotal
Precipitation---
Heating Degree Days9.5 (Base 65)
Growing Degree Days5.5 (Base 50)
Averaged from 19 records on May 10, 2013
WEATHER CONDITIONS BREAKOUT
WIND DIRECTION BREAKOUT
WEATHER BY HOUR - MAY 10, 2013
[ °C ]   °F
Local TimeTemperatureDewpointHumidityBarometerVisibilityWind DirectionWind SpeedGust SpeedPrecipitationEventsConditions
2:53 AM42.1 °F37.9 °F85 %30.20 in10.0 miSouth (190°)3.5 mphClear
3:53 AM41.0 °F36.0 °F82 %30.20 in10.0 miCalmClear
6:53 AM39.0 °F35.1 °F86 %30.26 in10.0 miCalmClear
7:53 AM48.0 °F39.0 °F71 %30.26 in10.0 miCalmClear
8:53 AM55.9 °F39.0 °F53 %30.24 in10.0 miCalmClear
10:53 AM63.0 °F42.1 °F46 %30.23 in10.0 miVariable4.6 mphClear
11:53 AM66.9 °F41.0 °F39 %30.22 in10.0 miNNE (20°)5.8 mphClear
12:53 PM69.1 °F39.0 °F33 %30.21 in10.0 miVariable4.6 mphPartly Cloudy
1:53 PM71.1 °F39.0 °F31 %30.21 in10.0 miNNE (20°)6.9 mphPartly Cloudy
2:53 PM72.0 °F36.0 °F27 %30.21 in10.0 miNE (40°)4.6 mphClear
3:53 PM72.0 °F34.0 °F25 %30.19 in10.0 miVariable3.5 mphPartly Cloudy
4:53 PM72.0 °F33.1 °F24 %30.19 in10.0 miVariable4.6 mphClear
5:53 PM70.0 °F32.0 °F25 %30.19 in10.0 miVariable3.5 mphClear
6:53 PM64.0 °F36.0 °F35 %30.21 in10.0 miNorth (360°)3.5 mphClear
7:53 PM59.0 °F41.0 °F51 %30.22 in10.0 miCalmClear
8:53 PM54.0 °F39.9 °F59 %30.24 in10.0 miCalmClear
9:53 PM52.0 °F39.9 °F63 %30.26 in10.0 miCalmClear
10:53 PM50.0 °F41.0 °F71 %30.26 in10.0 miCalmClear
11:53 PM48.0 °F39.9 °F74 %30.26 in10.0 miSSW (200°)3.5 mphClear
Hourly data recorded from KTVL, located miles away from South Lake Tahoe, California







STORIES FROM OUR PARTNERS